| time (UTC) | temp F | wind direction | speed MPH | gust MPH | rain 1hr in | rain 24hr in | rain mn in | humidity % | barometer mb |
| 20260505124905 | 66 | 225 | 4.0 | 10.0 | 0.00 | 0.00 | 0.00 | 60 | 1008.9 |
| 20260505124404 | 65 | 229 | 2.0 | 10.0 | 0.00 | 0.00 | 0.00 | 62 | 1009.0 |
| 20260505123905 | 65 | 216 | 4.0 | 10.0 | 0.00 | 0.00 | 0.00 | 63 | 1009.0 |
| 20260505123404 | 64 | 218 | 3.0 | 6.0 | 0.00 | 0.00 | 0.00 | 64 | 1009.1 |
| 20260505122405 | 63 | 215 | 2.0 | 5.0 | 0.00 | 0.00 | 0.00 | 67 | 1009.1 |
| 20260505121405 | 62 | 202 | 0.0 | 2.0 | 0.00 | 0.00 | 0.00 | 69 | 1009.3 |
| 20260505120904 | 61 | 204 | 0.0 | 2.0 | 0.00 | 0.00 | 0.00 | 71 | 1009.2 |
| 20260505120404 | 60 | 191 | 0.0 | 0.0 | 0.00 | 0.00 | 0.00 | 72 | 1009.2 |
| 20260505115905 | 59 | 192 | 0.0 | 2.0 | 0.00 | 0.00 | 0.00 | 74 | 1009.2 |
| 20260505115404 | 59 | 179 | 1.0 | 3.0 | 0.00 | 0.00 | 0.00 | 73 | 1009.2 |
| 20260505113904 | 60 | 181 | 5.0 | 10.0 | 0.00 | 0.00 | 0.00 | 73 | 1008.7 |
| 20260505113406 | 59 | 113 | 1.0 | 3.0 | 0.00 | 0.00 | 0.00 | 72 | 1009.3 |
| 20260505112905 | 59 | 159 | 1.0 | 5.0 | 0.00 | 0.00 | 0.00 | 72 | 1009.2 |
| 20260505112406 | 59 | 180 | 1.0 | 2.0 | 0.00 | 0.00 | 0.00 | 72 | 1009.2 |
| 20260505111905 | 59 | 208 | 0.0 | 1.0 | 0.00 | 0.00 | 0.00 | 71 | 1009.1 |
| 20260505111404 | 59 | 208 | 0.0 | 6.0 | 0.00 | 0.00 | 0.00 | 71 | 1009.2 |
| 20260505110404 | 59 | 189 | 3.0 | 5.0 | 0.00 | 0.00 | 0.00 | 70 | 1009.4 |
| 20260505101905 | 56 | 173 | 1.0 | 3.0 | 0.00 | 0.00 | 0.00 | 74 | 1009.1 |
| 20260505101405 | 56 | 190 | 1.0 | 3.0 | 0.00 | 0.00 | 0.00 | 74 | 1008.9 |
| 20260505100904 | 56 | 194 | 2.0 | 6.0 | 0.00 | 0.00 | 0.00 | 74 | 1008.9 |
| 20260505100405 | 56 | 178 | 2.0 | 5.0 | 0.00 | 0.00 | 0.00 | 74 | 1008.9 |
| 20260505095905 | 56 | 194 | 1.0 | 3.0 | 0.00 | 0.00 | 0.00 | 74 | 1008.7 |
| 20260505095404 | 56 | 194 | 0.0 | 1.0 | 0.00 | 0.00 | 0.00 | 73 | 1008.6 |
| 20260505094905 | 56 | 211 | 0.0 | 0.0 | 0.00 | 0.00 | 0.00 | 74 | 1008.5 |
| 20260505094405 | 56 | 205 | 0.0 | 2.0 | 0.00 | 0.00 | 0.00 | 73 | 1008.3 |
| 20260505093404 | 56 | 183 | 3.0 | 6.0 | 0.00 | 0.00 | 0.00 | 73 | 1008.3 |
| 20260505092904 | 56 | 190 | 2.0 | 5.0 | 0.00 | 0.00 | 0.00 | 72 | 1008.3 |
| 20260505091404 | 56 | 185 | 2.0 | 7.0 | 0.00 | 0.00 | 0.00 | 72 | 1008.3 |
| 20260505090905 | 56 | 196 | 3.0 | 10.0 | 0.00 | 0.00 | 0.00 | 72 | 1008.3 |
| 20260505090405 | 56 | 184 | 2.0 | 7.0 | 0.00 | 0.00 | 0.00 | 72 | 1008.3 |
| 20260505085904 | 56 | 195 | 2.0 | 8.0 | 0.00 | 0.00 | 0.00 | 72 | 1008.3 |
| 20260505085405 | 56 | 180 | 1.0 | 6.0 | 0.00 | 0.00 | 0.00 | 72 | 1008.3 |
| 20260505084905 | 56 | 197 | 2.0 | 7.0 | 0.00 | 0.00 | 0.00 | 71 | 1008.3 |
| 20260505083905 | 56 | 182 | 0.0 | 2.0 | 0.00 | 0.00 | 0.00 | 71 | 1008.3 |
| 20260505083404 | 56 | 184 | 1.0 | 3.0 | 0.00 | 0.00 | 0.00 | 71 | 1008.4 |
| 20260505082904 | 56 | 182 | 0.0 | 3.0 | 0.00 | 0.00 | 0.00 | 70 | 1008.4 |
| 20260505082405 | 56 | 200 | 0.0 | 3.0 | 0.00 | 0.00 | 0.00 | 70 | 1008.3 |
| 20260505081904 | 57 | 183 | 0.0 | 3.0 | 0.00 | 0.00 | 0.00 | 70 | 1008.3 |
| 20260505081404 | 57 | 182 | 0.0 | 2.0 | 0.00 | 0.00 | 0.00 | 70 | 1008.3 |
| 20260505080904 | 57 | 182 | 0.0 | 1.0 | 0.00 | 0.00 | 0.00 | 70 | 1008.3 |
| 20260505080404 | 57 | 180 | 0.0 | 2.0 | 0.00 | 0.00 | 0.00 | 69 | 1008.3 |
| 20260505075905 | 57 | 184 | 1.0 | 2.0 | 0.00 | 0.00 | 0.00 | 69 | 1008.3 |
| 20260505075404 | 57 | 208 | 0.0 | 5.0 | 0.00 | 0.00 | 0.00 | 69 | 1008.4 |
| 20260505074904 | 57 | 188 | 3.0 | 6.0 | 0.00 | 0.00 | 0.00 | 68 | 1008.3 |
| 20260505074404 | 57 | 163 | 2.0 | 6.0 | 0.00 | 0.00 | 0.00 | 68 | 1008.2 |
| 20260505073904 | 57 | 181 | 2.0 | 6.0 | 0.00 | 0.00 | 0.00 | 68 | 1008.3 |
| 20260505073404 | 57 | 187 | 1.0 | 6.0 | 0.00 | 0.00 | 0.00 | 68 | 1008.3 |
| 20260505072404 | 57 | 189 | 1.0 | 3.0 | 0.00 | 0.00 | 0.00 | 67 | 1008.2 |
| 20260505070404 | 58 | 185 | 3.0 | 6.0 | 0.00 | 0.00 | 0.00 | 67 | 1008.3 |
| 20260505065904 | 58 | 232 | 1.0 | 6.0 | 0.00 | 0.00 | 0.00 | 67 | 1008.2 |
| 20260505064905 | 58 | 186 | 3.0 | 6.0 | 0.00 | 0.00 | 0.00 | 66 | 1008.2 |
| 20260505064404 | 58 | 205 | 4.0 | 7.0 | 0.00 | 0.00 | 0.00 | 66 | 1008.2 |
| 20260505063905 | 58 | 202 | 2.0 | 6.0 | 0.00 | 0.00 | 0.00 | 65 | 1008.2 |
| 20260505063405 | 58 | 218 | 0.0 | 3.0 | 0.00 | 0.00 | 0.00 | 65 | 1008.2 |
| 20260505061404 | 58 | 204 | 1.0 | 7.0 | 0.00 | 0.00 | 0.00 | 66 | 1008.4 |
| 20260505060905 | 58 | 208 | 1.0 | 5.0 | 0.00 | 0.00 | 0.00 | 66 | 1008.5 |
| 20260505060406 | 58 | 190 | 1.0 | 6.0 | 0.00 | 0.00 | 0.00 | 66 | 1008.5 |
| 20260505055904 | 58 | 193 | 0.0 | 2.0 | 0.00 | 0.00 | 0.00 | 67 | 1008.5 |
| 20260505055404 | 58 | 187 | 0.0 | 2.0 | 0.00 | 0.00 | 0.00 | 66 | 1008.4 |
| 20260505054904 | 58 | 192 | 1.0 | 3.0 | 0.00 | 0.00 | 0.00 | 66 | 1008.5 |
| 20260505054406 | 58 | 184 | 0.0 | 1.0 | 0.00 | 0.00 | 0.00 | 65 | 1008.5 |
| 20260505053905 | 58 | 177 | 0.0 | 3.0 | 0.00 | 0.00 | 0.00 | 65 | 1008.5 |
| 20260505053405 | 59 | 180 | 1.0 | 3.0 | 0.00 | 0.00 | 0.00 | 64 | 1008.5 |
| 20260505052905 | 59 | 167 | 2.0 | 6.0 | 0.00 | 0.00 | 0.00 | 63 | 1008.6 |
| 20260505052404 | 59 | 178 | 1.0 | 7.0 | 0.00 | 0.00 | 0.00 | 63 | 1008.6 |
| 20260505051905 | 59 | 186 | 3.0 | 8.0 | 0.00 | 0.00 | 0.00 | 62 | 1008.6 |
| 20260505051405 | 59 | 188 | 2.0 | 9.0 | 0.00 | 0.00 | 0.00 | 62 | 1008.6 |
| 20260505050904 | 60 | 179 | 3.0 | 10.0 | 0.00 | 0.00 | 0.00 | 62 | 1008.7 |
| 20260505050405 | 60 | 181 | 3.0 | 8.0 | 0.00 | 0.00 | 0.00 | 61 | 1008.7 |
| 20260505041404 | 61 | 179 | 2.0 | 10.0 | 0.00 | 0.00 | 0.00 | 58 | 1008.8 |
| 20260505040905 | 61 | 177 | 3.0 | 10.0 | 0.00 | 0.00 | 0.00 | 57 | 1008.8 |
| 20260505035905 | 61 | 165 | 5.0 | 10.0 | 0.00 | 0.00 | 0.00 | 57 | 1008.8 |
| 20260505035404 | 61 | 174 | 5.0 | 9.0 | 0.00 | 0.00 | 0.00 | 56 | 1008.9 |
| 20260505034905 | 61 | 187 | 5.0 | 12.0 | 0.00 | 0.00 | 0.00 | 56 | 1008.9 |
| 20260505033906 | 61 | 164 | 4.0 | 12.0 | 0.00 | 0.00 | 0.00 | 55 | 1008.9 |
| 20260505033406 | 61 | 168 | 6.0 | 13.0 | 0.00 | 0.00 | 0.00 | 54 | 1008.9 |
| 20260505032904 | 61 | 184 | 3.0 | 12.0 | 0.00 | 0.00 | 0.00 | 54 | 1009.0 |
| 20260505032405 | 61 | 180 | 5.0 | 12.0 | 0.00 | 0.00 | 0.00 | 54 | 1009.0 |
| 20260505031905 | 61 | 182 | 2.0 | 7.0 | 0.00 | 0.00 | 0.00 | 55 | 1009.0 |
| 20260505030906 | 62 | 166 | 0.0 | 6.0 | 0.00 | 0.00 | 0.00 | 54 | 1009.0 |
| 20260505030406 | 62 | 197 | 2.0 | 8.0 | 0.00 | 0.00 | 0.00 | 54 | 1009.0 |
| 20260505025906 | 62 | 180 | 2.0 | 8.0 | 0.00 | 0.00 | 0.00 | 53 | 1009.0 |
| 20260505025405 | 62 | 182 | 2.0 | 12.0 | 0.00 | 0.00 | 0.00 | 53 | 1009.1 |
| 20260505024904 | 62 | 181 | 2.0 | 8.0 | 0.00 | 0.00 | 0.00 | 53 | 1009.1 |
| 20260505023905 | 62 | 180 | 1.0 | 10.0 | 0.00 | 0.00 | 0.00 | 52 | 1009.1 |
| 20260505023403 | 63 | 178 | 3.0 | 8.0 | 0.00 | 0.00 | 0.00 | 52 | 1009.1 |
| 20260505022904 | 63 | 173 | 5.0 | 9.0 | 0.00 | 0.00 | 0.00 | 51 | 1009.1 |
| 20260505021904 | 63 | 171 | 3.0 | 12.0 | 0.00 | 0.00 | 0.00 | 51 | 1009.2 |
| 20260505015905 | 63 | 192 | 5.0 | 12.0 | 0.00 | 0.00 | 0.00 | 51 | 1009.1 |
| 20260505015405 | 63 | 176 | 3.0 | 12.0 | 0.00 | 0.00 | 0.00 | 50 | 1009.1 |
| 20260505014904 | 63 | 178 | 5.0 | 12.0 | 0.00 | 0.00 | 0.00 | 51 | 1009.1 |
| 20260505014404 | 63 | 170 | 6.0 | 12.0 | 0.00 | 0.00 | 0.00 | 51 | 1009.0 |
| 20260505013904 | 64 | 167 | 6.0 | 12.0 | 0.00 | 0.00 | 0.00 | 50 | 1009.0 |
| 20260505013404 | 64 | 189 | 4.0 | 9.0 | 0.00 | 0.00 | 0.00 | 50 | 1009.0 |
| 20260505012904 | 64 | 167 | 4.0 | 13.0 | 0.00 | 0.00 | 0.00 | 49 | 1008.9 |
| 20260505011904 | 65 | 159 | 3.0 | 8.0 | 0.00 | 0.00 | 0.00 | 46 | 1008.8 |
| 20260505011404 | 66 | 143 | 2.0 | 5.0 | 0.00 | 0.00 | 0.00 | 40 | 1008.6 |
| 20260505010905 | 67 | 181 | 1.0 | 8.0 | 0.00 | 0.00 | 0.00 | 38 | 1008.5 |
| 20260505010405 | 67 | 202 | 2.0 | 10.0 | 0.00 | 0.00 | 0.00 | 38 | 1008.5 |
| 20260505005904 | 67 | 227 | 3.0 | 9.0 | 0.00 | 0.00 | 0.00 | 37 | 1008.2 |
| 20260505005404 | 67 | 191 | 3.0 | 12.0 | 0.00 | 0.00 | 0.00 | 38 | 1008.2 |
| 20260505004904 | 67 | 208 | 3.0 | 7.0 | 0.00 | 0.00 | 0.00 | 37 | 1008.2 |
| 20260505003905 | 67 | 203 | 3.0 | 13.0 | 0.00 | 0.00 | 0.00 | 37 | 1008.2 |
| 20260505003405 | 67 | 203 | 6.0 | 13.0 | 0.00 | 0.00 | 0.00 | 37 | 1008.0 |
| 20260505002905 | 67 | 213 | 5.0 | 13.0 | 0.00 | 0.00 | 0.00 | 36 | 1008.0 |
| 20260505001904 | 67 | 206 | 7.0 | 13.0 | 0.00 | 0.00 | 0.00 | 37 | 1007.7 |
| 20260505001404 | 68 | 213 | 5.0 | 10.0 | 0.00 | 0.00 | 0.00 | 36 | 1007.7 |
| 20260505000904 | 68 | 207 | 7.0 | 12.0 | 0.00 | 0.00 | 0.00 | 36 | 1007.6 |
| 20260505000405 | 68 | 198 | 7.0 | 12.0 | 0.00 | 0.00 | 0.00 | 36 | 1007.5 |
| 20260504235404 | 68 | 218 | 5.0 | 9.0 | 0.00 | 0.00 | 0.00 | 36 | 1007.4 |
| 20260504234905 | 68 | 211 | 5.0 | 13.0 | 0.00 | 0.00 | 0.00 | 35 | 1007.3 |
| 20260504233404 | 69 | 236 | 3.0 | 10.0 | 0.00 | 0.00 | 0.00 | 36 | 1007.2 |
| 20260504232904 | 69 | 223 | 5.0 | 13.0 | 0.00 | 0.00 | 0.00 | 35 | 1007.0 |
| 20260504232404 | 69 | 224 | 5.0 | 16.0 | 0.00 | 0.00 | 0.00 | 35 | 1007.0 |
| 20260504231904 | 69 | 233 | 6.0 | 13.0 | 0.00 | 0.00 | 0.00 | 35 | 1006.9 |
| 20260504231405 | 69 | 216 | 8.0 | 17.0 | 0.00 | 0.00 | 0.00 | 35 | 1006.9 |
| 20260504230905 | 70 | 222 | 8.0 | 14.0 | 0.00 | 0.00 | 0.00 | 35 | 1006.8 |
| 20260504230404 | 70 | 211 | 9.0 | 15.0 | 0.00 | 0.00 | 0.00 | 34 | 1006.8 |
| 20260504225905 | 70 | 231 | 6.0 | 13.0 | 0.00 | 0.00 | 0.00 | 34 | 1006.8 |
| 20260504225404 | 70 | 212 | 9.0 | 14.0 | 0.00 | 0.00 | 0.00 | 34 | 1006.8 |
| 20260504224904 | 70 | 228 | 7.0 | 14.0 | 0.00 | 0.00 | 0.00 | 34 | 1006.8 |
| 20260504224404 | 70 | 223 | 7.0 | 15.0 | 0.00 | 0.00 | 0.00 | 35 | 1007.0 |
| 20260504223904 | 71 | 206 | 5.0 | 14.0 | 0.00 | 0.00 | 0.00 | 34 | 1006.9 |
| 20260504223405 | 71 | 210 | 7.0 | 14.0 | 0.00 | 0.00 | 0.00 | 34 | 1006.8 |
| 20260504222905 | 71 | 202 | 7.0 | 12.0 | 0.00 | 0.00 | 0.00 | 34 | 1006.9 |
| 20260504221905 | 71 | 192 | 6.0 | 16.0 | 0.00 | 0.00 | 0.00 | 33 | 1006.9 |
| 20260504221405 | 71 | 218 | 9.0 | 14.0 | 0.00 | 0.00 | 0.00 | 33 | 1006.9 |
| 20260504220905 | 72 | 214 | 8.0 | 13.0 | 0.00 | 0.00 | 0.00 | 33 | 1007.1 |
| 20260504220404 | 71 | 229 | 5.0 | 12.0 | 0.00 | 0.00 | 0.00 | 34 | 1007.2 |
| 20260504215905 | 71 | 216 | 9.0 | 21.0 | 0.00 | 0.00 | 0.00 | 32 | 1007.3 |
| 20260504215404 | 72 | 217 | 8.0 | 21.0 | 0.00 | 0.00 | 0.00 | 32 | 1007.3 |
| 20260504214405 | 72 | 184 | 7.0 | 14.0 | 0.00 | 0.00 | 0.00 | 32 | 1007.3 |
| 20260504213905 | 72 | 210 | 10.0 | 16.0 | 0.00 | 0.00 | 0.00 | 33 | 1007.4 |
| 20260504212404 | 72 | 250 | 10.0 | 22.0 | 0.00 | 0.00 | 0.00 | 32 | 1007.3 |
| 20260504211905 | 72 | 252 | 5.0 | 15.0 | 0.00 | 0.00 | 0.00 | 33 | 1007.4 |
| 20260504211404 | 72 | 213 | 3.0 | 14.0 | 0.00 | 0.00 | 0.00 | 33 | 1007.4 |
| 20260504210904 | 72 | 219 | 7.0 | 17.0 | 0.00 | 0.00 | 0.00 | 33 | 1007.4 |
| 20260504210405 | 72 | 241 | 6.0 | 16.0 | 0.00 | 0.00 | 0.00 | 33 | 1007.4 |
| 20260504205905 | 71 | 203 | 6.0 | 14.0 | 0.00 | 0.00 | 0.00 | 33 | 1007.4 |
| 20260504205405 | 73 | 257 | 11.0 | 17.0 | 0.00 | 0.00 | 0.00 | 32 | 1007.4 |
| 20260504204905 | 73 | 224 | 7.0 | 15.0 | 0.00 | 0.00 | 0.00 | 34 | 1007.3 |
| 20260504204406 | 73 | 244 | 7.0 | 16.0 | 0.00 | 0.00 | 0.00 | 32 | 1007.3 |
| 20260504203905 | 72 | 231 | 6.0 | 16.0 | 0.00 | 0.00 | 0.00 | 32 | 1007.3 |
| 20260504203404 | 73 | 229 | 9.0 | 15.0 | 0.00 | 0.00 | 0.00 | 33 | 1007.4 |
| 20260504202903 | 73 | 233 | 7.0 | 16.0 | 0.00 | 0.00 | 0.00 | 32 | 1007.3 |
| 20260504201904 | 73 | 175 | 2.0 | 10.0 | 0.00 | 0.00 | 0.00 | 30 | 1007.5 |
| 20260504201404 | 73 | 202 | 5.0 | 20.0 | 0.00 | 0.00 | 0.00 | 32 | 1007.5 |
| 20260504200904 | 72 | 199 | 8.0 | 20.0 | 0.00 | 0.00 | 0.00 | 35 | 1007.6 |
| 20260504200403 | 73 | 222 | 10.0 | 18.0 | 0.00 | 0.00 | 0.00 | 32 | 1007.6 |
| 20260504195905 | 73 | 222 | 8.0 | 18.0 | 0.00 | 0.00 | 0.00 | 30 | 1007.6 |
| 20260504195404 | 73 | 242 | 2.0 | 12.0 | 0.00 | 0.00 | 0.00 | 33 | 1007.7 |
| 20260504194904 | 73 | 245 | 6.0 | 15.0 | 0.00 | 0.00 | 0.00 | 32 | 1007.8 |
| 20260504194404 | 72 | 251 | 10.0 | 18.0 | 0.00 | 0.00 | 0.00 | 32 | 1007.7 |
| 20260504193903 | 73 | 210 | 7.0 | 16.0 | 0.00 | 0.00 | 0.00 | 34 | 1007.7 |
| 20260504193403 | 72 | 242 | 9.0 | 18.0 | 0.00 | 0.00 | 0.00 | 33 | 1007.7 |
| 20260504192904 | 72 | 212 | 9.0 | 16.0 | 0.00 | 0.00 | 0.00 | 34 | 1007.8 |
| 20260504192403 | 73 | 230 | 6.0 | 18.0 | 0.00 | 0.00 | 0.00 | 34 | 1007.9 |
| 20260504190904 | 72 | 227 | 12.0 | 20.0 | 0.00 | 0.00 | 0.00 | 31 | 1008.2 |
| 20260504190405 | 72 | 230 | 10.0 | 22.0 | 0.00 | 0.00 | 0.00 | 33 | 1008.2 |
| 20260504185905 | 73 | 225 | 7.0 | 16.0 | 0.00 | 0.00 | 0.00 | 35 | 1008.2 |
| 20260504185404 | 72 | 210 | 8.0 | 17.0 | 0.00 | 0.00 | 0.00 | 34 | 1008.2 |
| 20260504184904 | 72 | 219 | 6.0 | 12.0 | 0.00 | 0.00 | 0.00 | 35 | 1008.3 |
| 20260504184404 | 72 | 235 | 11.0 | 20.0 | 0.00 | 0.00 | 0.00 | 34 | 1008.4 |
| 20260504183905 | 72 | 226 | 3.0 | 12.0 | 0.00 | 0.00 | 0.00 | 36 | 1008.5 |
| 20260504182904 | 71 | 245 | 13.0 | 21.0 | 0.00 | 0.00 | 0.00 | 34 | 1008.6 |
| 20260504182403 | 71 | 219 | 11.0 | 20.0 | 0.00 | 0.00 | 0.00 | 34 | 1008.7 |
| 20260504181404 | 71 | 244 | 12.0 | 22.0 | 0.00 | 0.00 | 0.00 | 33 | 1008.7 |
| 20260504180904 | 71 | 215 | 7.0 | 15.0 | 0.00 | 0.00 | 0.00 | 36 | 1008.9 |
| 20260504175404 | 71 | 221 | 10.0 | 18.0 | 0.00 | 0.00 | 0.00 | 34 | 1009.2 |
| 20260504174904 | 71 | 220 | 10.0 | 20.0 | 0.00 | 0.00 | 0.00 | 34 | 1009.2 |
| 20260504174404 | 70 | 256 | 6.0 | 20.0 | 0.00 | 0.00 | 0.00 | 35 | 1009.3 |
| 20260504173904 | 71 | 238 | 9.0 | 20.0 | 0.00 | 0.00 | 0.00 | 35 | 1009.3 |
| 20260504173404 | 70 | 217 | 9.0 | 20.0 | 0.00 | 0.00 | 0.00 | 36 | 1009.3 |
| 20260504172904 | 70 | 248 | 10.0 | 20.0 | 0.00 | 0.00 | 0.00 | 35 | 1009.3 |
| 20260504172404 | 70 | 267 | 7.0 | 12.0 | 0.00 | 0.00 | 0.00 | 39 | 1009.4 |
| 20260504171904 | 69 | 246 | 6.0 | 15.0 | 0.00 | 0.00 | 0.00 | 35 | 1009.5 |
| 20260504171405 | 69 | 217 | 6.0 | 16.0 | 0.00 | 0.00 | 0.00 | 36 | 1009.5 |
| 20260504170905 | 70 | 226 | 9.0 | 15.0 | 0.00 | 0.00 | 0.00 | 38 | 1009.5 |
| 20260504170404 | 69 | 211 | 12.0 | 23.0 | 0.00 | 0.00 | 0.00 | 35 | 1009.7 |
| 20260504160405 | 68 | 230 | 7.0 | 16.0 | 0.00 | 0.00 | 0.00 | 37 | 1010.5 |
| 20260504150904 | 65 | 202 | 7.0 | 12.0 | 0.00 | 0.00 | 0.00 | 38 | 1011.0 |
| 20260504140404 | 61 | 235 | 11.0 | 18.0 | 0.00 | 0.00 | 0.00 | 43 | 1011.4 |